Accueil
METAR-TAF:

METAR-TAF

Aéroports :

Morlaix, France

Aéroport de Morlaix Ploujean

latitude: 48-36N, longitude: 3-49W, altitude: 84 m

Observation

Le bulletin a été fait il y a 4 heures et 14 minutes, à 20:00 UTC
Vent 3 kt de nord-est
Température 12°C
Humidité 88%
Pression 1022 hPa
Visibilité 10 km ou plus
pas de nuages en-dessous de 1500 mètres et pas de cumulonimbus.

METAR: LFRU 202000Z AUTO 05003KT CAVOK 12/10 Q1022

Heure: 02:14 (00:14 UTC)


TAF: absent

Observations et prévisions météorologiques de plus de 4000 aéroports (messages METAR et TAF).

Les stations disponibles sont représentées par des disques jaunes et rouges sur la carte.

Passer la souris dessus pour voir le nom de la station.

Cliquer dessus pour voir les observations et prévisions météorologiques.

Pour changer de carte: cliquez sur les boutons verts avec une croix noire pour zoomer, sur le bouton vert avec un tiret pour effectuer un zoom arrière, ou sur les flèches vertes pour les cartes adjacentes.


METAR-TAF: